Location: Newark
(45.0500°N, 41.9667°E)
Time: 10:59:48
(UTC+00:00)

ISS - Visible Passes

Search period start: 23 July 2019 00:00
Search period end: 02 August 2019 00:00
Orbit: 409 x 418 km, 51.6° (Epoch: 23 July)

Date Brightness Start Highest point End Pass type
(mag) Time Alt. Az. Time Alt. Az. Time Alt. Az.
23 Jul -1.5 18:39:56 10° WNW 18:42:49 26° N 18:45:41 10° NE visible
23 Jul -2.2 20:17:02 10° NW 20:20:07 33° NNE 20:20:23 33° NNE visible
24 Jul -1.7 17:50:22 10° WNW 17:53:20 28° N 17:56:18 10° NE visible
24 Jul -1.8 19:27:42 10° NW 19:30:39 28° N 19:32:26 18° ENE visible
24 Jul -1.3 21:04:19 10° WNW 21:05:15 17° WNW 21:05:15 17° WNW visible
25 Jul -1.7 18:38:17 10° NW 18:41:10 26° N 18:44:02 10° ENE visible
25 Jul -2.4 20:15:01 10° NW 20:17:21 38° NNW 20:17:21 38° NNW visible
26 Jul -1.6 17:48:47 10° WNW 17:51:39 25° N 17:54:30 10° ENE visible
26 Jul -2.7 19:25:42 10° NW 19:28:54 40° NNE 19:29:30 36° NE visible
27 Jul -2.2 18:36:23 10° NW 18:39:26 32° NNE 18:41:41 15° ENE visible
27 Jul -1.8 20:13:00 10° WNW 20:14:30 24° WNW 20:14:30 24° WNW visible
28 Jul -1.9 17:46:59 10° NW 17:49:55 27° N 17:52:51 10° ENE visible
28 Jul -3.5 19:23:37 10° WNW 19:26:42 68° NNW 19:26:42 68° NNW visible
29 Jul -3.1 18:34:17 10° NW 18:37:34 50° NNE 18:38:56 29° E visible
29 Jul -1.0 20:11:11 10° WNW 20:11:45 13° W 20:11:45 13° W visible
30 Jul -2.6 17:44:56 10° NW 17:48:05 37° NNE 17:51:11 10° E visible
30 Jul -2.7 19:21:36 10° WNW 19:24:00 37° W 19:24:00 37° W visible
31 Jul -3.9 18:32:09 10° WNW 18:35:30 79° SSW 18:36:17 49° SE visible
01 Aug -3.6 17:42:45 10° WNW 17:46:05 67° NNE 17:48:37 16° ESE visible
01 Aug -1.5 19:19:58 10° W 19:21:26 17° WSW 19:21:26 17° WSW visible
